Location: Hradec Kralove
(50.2170°N, 15.8330°E)
Time: 05:43:34
(UTC+02:00)

Explorer 7 - Pass Details

Date: 29 January 2023
Orbit: 478 x 657 km, 50.3° (Epoch: 25 March)

Event Time Altitude Azimuth Distance (km) Brightness Sun altitude
Rises 20:32:26 0° 281° (W) 2,958 11.5 -36.2°
Reaches altitude 10° 20:35:52 10° 255° (WSW) 2,065 10.3 -36.7°
Enters shadow 20:36:46 12° 245° (WSW) 1,927 10.0 -36.9°
Maximum altitude 20:38:11 14° 226° (SW) 1,842 - -37.1°
Drops below altitude 10° 20:40:30 10° 197° (SSW) 2,073 - -37.4°
Sets 20:43:58 0° 171° (S) 2,979 - -37.9°
